Time,TemperatureF,DewpointF,PressureIn,WindDirection,WindDirectionDegrees,WindSpeedMPH,WindSpeedGustMPH,Humidity,HourlyPrecipIn,Conditions,Clouds,dailyrainin,SolarRadiationWatts/m^2,SoftwareType,DateUTC
2013-12-15 00:00:00,41.9,36.8,30.15,NNW,327,2.0,4.0,82,0.00,,,0.40,0,Wunderground v.1.15,2013-12-15 05:00:00,
2013-12-15 00:05:00,41.9,36.8,30.15,WNW,287,1.0,4.0,82,0.00,,,0.40,0,Wunderground v.1.15,2013-12-15 05:05:00,
2013-12-15 00:10:00,41.8,37.0,30.15,WNW,289,1.0,4.0,83,0.00,,,0.40,0,Wunderground v.1.15,2013-12-15 05:10:00,
2013-12-15 00:15:00,41.7,36.9,30.16,WNW,299,1.0,4.0,83,0.00,,,0.40,0,Wunderground v.1.15,2013-12-15 05:15:00,
2013-12-15 00:20:00,41.7,36.6,30.16,NW,319,2.0,2.0,82,0.00,,,0.40,0,Wunderground v.1.15,2013-12-15 05:20:00,
2013-12-15 00:30:00,41.6,36.2,30.16,WNW,284,1.0,4.0,81,0.00,,,0.40,0,Wunderground v.1.15,2013-12-15 05:30:00,
2013-12-15 00:40:00,41.5,36.4,30.17,NW,313,1.0,4.0,82,0.00,,,0.40,0,Wunderground v.1.15,2013-12-15 05:40:00,
2013-12-15 00:45:00,41.4,36.0,30.17,NW,317,1.0,4.0,81,0.00,,,0.40,0,Wunderground v.1.15,2013-12-15 05:45:00,
2013-12-15 00:50:00,41.3,35.9,30.17,NW,315,2.0,4.0,81,0.00,,,0.40,0,Wunderground v.1.15,2013-12-15 05:50:00,
2013-12-15 01:00:00,41.1,35.1,30.17,NW,324,2.0,2.0,79,0.00,,,0.40,0,Wunderground v.1.15,2013-12-15 06:00:00,
2013-12-15 01:10:00,41.0,35.3,30.17,NNE,21,1.0,1.0,80,0.00,,,0.01,0,Wunderground v.1.15,2013-12-15 06:10:00,
2013-12-15 01:20:00,40.9,35.2,30.17,NW,326,1.0,6.0,80,0.00,,,0.01,0,Wunderground v.1.15,2013-12-15 06:20:00,
2013-12-15 01:30:00,40.8,35.1,30.17,NW,321,1.0,1.0,80,0.00,,,0.01,0,Wunderground v.1.15,2013-12-15 06:30:00,
2013-12-15 01:40:00,40.7,35.3,30.17,SE,131,1.0,6.0,81,0.00,,,0.01,0,Wunderground v.1.15,2013-12-15 06:40:00,
2013-12-15 01:45:00,40.5,35.1,30.17,WNW,287,1.0,6.0,81,0.00,,,0.01,0,Wunderground v.1.15,2013-12-15 06:45:00,
2013-12-15 01:55:00,40.5,35.1,30.17,NW,304,1.0,6.0,81,0.00,,,0.01,0,Wunderground v.1.15,2013-12-15 06:55:00,
2013-12-15 02:05:00,40.4,35.0,30.17,WNW,303,1.0,6.0,81,0.00,,,0.01,0,Wunderground v.1.15,2013-12-15 07:05:00,
2013-12-15 02:15:00,40.2,34.8,30.17,West,265,1.0,2.0,81,0.00,,,0.01,0,Wunderground v.1.15,2013-12-15 07:15:00,
2013-12-15 02:20:00,40.1,35.0,30.17,NW,319,1.0,1.0,82,0.00,,,0.01,0,Wunderground v.1.15,2013-12-15 07:20:00,
2013-12-15 02:30:00,39.9,34.5,30.17,WNW,292,2.0,2.0,81,0.00,,,0.01,0,Wunderground v.1.15,2013-12-15 07:30:00,
2013-12-15 02:35:00,39.8,34.8,30.17,NW,311,1.0,6.0,82,0.00,,,0.01,0,Wunderground v.1.15,2013-12-15 07:35:00,
2013-12-15 02:45:00,39.7,34.3,30.18,NW,313,1.0,6.0,81,0.00,,,0.01,0,Wunderground v.1.15,2013-12-15 07:45:00,
2013-12-15 02:55:00,39.5,33.8,30.18,WNW,291,2.0,6.0,80,0.00,,,0.01,0,Wunderground v.1.15,2013-12-15 07:55:00,
2013-12-15 03:05:00,39.1,33.8,30.18,NW,305,2.0,6.0,81,0.00,,,0.01,0,Wunderground v.1.15,2013-12-15 08:05:00,
2013-12-15 03:15:00,38.8,33.5,30.18,NW,310,1.0,6.0,81,0.00,,,0.01,0,Wunderground v.1.15,2013-12-15 08:15:00,
2013-12-15 03:20:00,38.7,33.7,30.18,NW,304,1.0,1.0,82,0.00,,,0.01,0,Wunderground v.1.15,2013-12-15 08:20:00,
2013-12-15 03:30:00,38.2,33.5,30.19,WNW,296,1.0,6.0,83,0.00,,,0.01,0,Wunderground v.1.15,2013-12-15 08:30:00,
2013-12-15 03:40:00,38.0,33.3,30.19,West,263,1.0,6.0,83,0.00,,,0.01,0,Wunderground v.1.15,2013-12-15 08:40:00,
2013-12-15 03:45:00,37.9,33.5,30.19,WNW,294,0.0,6.0,84,0.00,,,0.01,0,Wunderground v.1.15,2013-12-15 08:45:00,
2013-12-15 03:55:00,37.8,33.4,30.20,NW,315,1.0,6.0,84,0.00,,,0.01,0,Wunderground v.1.15,2013-12-15 08:55:00,
2013-12-15 04:05:00,37.9,33.5,30.20,West,281,1.0,6.0,84,0.00,,,0.01,0,Wunderground v.1.15,2013-12-15 09:05:00,
2013-12-15 04:15:00,37.8,33.4,30.20,WNW,293,1.0,6.0,84,0.00,,,0.01,0,Wunderground v.1.15,2013-12-15 09:15:00,
2013-12-15 04:20:00,37.8,33.4,30.20,NNW,333,1.0,1.0,84,0.00,,,0.01,0,Wunderground v.1.15,2013-12-15 09:20:00,
2013-12-15 04:25:00,37.8,33.4,30.21,WNW,302,1.0,6.0,84,0.00,,,0.01,0,Wunderground v.1.15,2013-12-15 09:25:00,
2013-12-15 04:35:00,37.8,33.4,30.21,NW,315,0.0,6.0,84,0.00,,,0.01,0,Wunderground v.1.15,2013-12-15 09:35:00,
2013-12-15 04:45:00,37.4,32.7,30.21,NNW,335,1.0,6.0,83,0.00,,,0.01,0,Wunderground v.1.15,2013-12-15 09:45:00,
2013-12-15 04:55:00,36.9,32.5,30.21,NW,306,1.0,6.0,84,0.00,,,0.01,0,Wunderground v.1.15,2013-12-15 09:55:00,
2013-12-15 05:00:00,36.7,32.3,30.21,WNW,302,1.0,6.0,84,0.00,,,0.01,0,Wunderground v.1.15,2013-12-15 10:00:00,
2013-12-15 05:10:00,36.2,32.1,30.21,NW,315,1.0,6.0,85,0.00,,,0.01,0,Wunderground v.1.15,2013-12-15 10:10:00,
2013-12-15 05:20:00,35.9,31.8,30.21,NW,321,1.0,1.0,85,0.00,,,0.01,0,Wunderground v.1.15,2013-12-15 10:20:00,
2013-12-15 05:30:00,35.5,31.7,30.21,NW,317,0.0,6.0,86,0.00,,,0.01,0,Wunderground v.1.15,2013-12-15 10:30:00,
2013-12-15 05:40:00,35.2,31.4,30.20,NW,311,1.0,1.0,86,0.00,,,0.01,0,Wunderground v.1.15,2013-12-15 10:40:00,
2013-12-15 05:50:00,35.1,31.6,30.20,NW,311,0.0,6.0,87,0.00,,,0.01,0,Wunderground v.1.15,2013-12-15 10:50:00,
2013-12-15 06:00:00,34.8,31.3,30.21,WSW,254,0.0,6.0,87,0.00,,,0.01,0,Wunderground v.1.15,2013-12-15 11:00:00,
2013-12-15 06:10:00,34.5,31.0,30.21,WSW,254,0.0,6.0,87,0.00,,,0.01,0,Wunderground v.1.15,2013-12-15 11:10:00,
2013-12-15 06:20:00,34.3,30.8,30.21,WSW,255,0.0,6.0,87,0.00,,,0.01,0,Wunderground v.1.15,2013-12-15 11:20:00,
2013-12-15 06:30:00,33.9,30.7,30.22,WSW,254,0.0,6.0,88,0.00,,,0.01,0,Wunderground v.1.15,2013-12-15 11:30:00,
2013-12-15 06:40:00,33.8,30.9,30.23,WSW,254,0.0,6.0,89,0.00,,,0.01,0,Wunderground v.1.15,2013-12-15 11:40:00,
2013-12-15 06:50:00,33.8,30.6,30.23,WSW,255,0.0,6.0,88,0.00,,,0.01,0,Wunderground v.1.15,2013-12-15 11:50:00,
2013-12-15 07:00:00,33.7,30.8,30.23,WSW,254,0.0,0.0,89,0.00,,,0.01,0,Wunderground v.1.15,2013-12-15 12:00:00,
2013-12-15 07:10:00,33.4,30.5,30.23,WSW,255,0.0,4.0,89,0.00,,,0.01,0,Wunderground v.1.15,2013-12-15 12:10:00,
2013-12-15 07:20:00,33.4,30.5,30.23,WSW,255,0.0,4.0,89,0.00,,,0.01,0,Wunderground v.1.15,2013-12-15 12:20:00,
2013-12-15 07:30:00,33.1,30.2,30.24,WSW,255,0.0,4.0,89,0.00,,,0.02,0,Wunderground v.1.15,2013-12-15 12:30:00,
2013-12-15 07:40:00,32.8,30.2,30.25,WSW,255,0.0,4.0,90,0.00,,,0.02,0,Wunderground v.1.15,2013-12-15 12:40:00,
2013-12-15 07:50:00,32.6,30.0,30.25,WSW,255,0.0,4.0,90,0.00,,,0.02,0,Wunderground v.1.15,2013-12-15 12:50:00,
2013-12-15 08:00:00,32.7,30.1,30.25,WSW,255,0.0,4.0,90,0.00,,,0.02,0,Wunderground v.1.15,2013-12-15 13:00:00,
2013-12-15 08:10:00,32.8,30.2,30.26,WSW,255,0.0,4.0,90,0.00,,,0.02,5,Wunderground v.1.15,2013-12-15 13:10:00,
2013-12-15 08:20:00,32.8,30.2,30.26,WSW,255,0.0,4.0,90,0.00,,,0.02,11,Wunderground v.1.15,2013-12-15 13:20:00,
2013-12-15 08:30:00,33.0,30.1,30.26,WSW,255,0.0,4.0,89,0.00,,,0.02,14,Wunderground v.1.15,2013-12-15 13:30:00,
2013-12-15 08:40:00,32.9,30.0,30.27,SSW,194,0.0,4.0,89,0.00,,,0.02,23,Wunderground v.1.15,2013-12-15 13:40:00,
2013-12-15 08:50:00,32.8,30.2,30.27,SSW,194,1.0,1.0,90,0.00,,,0.02,30,Wunderground v.1.15,2013-12-15 13:50:00,
2013-12-15 09:00:00,32.8,30.5,30.27,SSW,194,0.0,4.0,91,0.00,,,0.02,37,Wunderground v.1.15,2013-12-15 14:00:00,
2013-12-15 09:10:00,33.0,30.4,30.27,SSW,194,0.0,4.0,90,0.00,,,0.02,44,Wunderground v.1.15,2013-12-15 14:10:00,
2013-12-15 09:20:00,33.4,30.8,30.27,SSW,194,1.0,1.0,90,0.00,,,0.02,54,Wunderground v.1.15,2013-12-15 14:20:00,
2013-12-15 09:30:00,33.9,31.0,30.28,SW,236,1.0,1.0,89,0.00,,,0.02,58,Wunderground v.1.15,2013-12-15 14:30:00,
2013-12-15 09:35:00,34.2,31.0,30.28,SW,236,1.0,4.0,88,0.00,,,0.02,58,Wunderground v.1.15,2013-12-15 14:35:00,
2013-12-15 09:40:00,34.5,31.3,30.28,SW,236,0.0,4.0,88,0.00,,,0.02,65,Wunderground v.1.15,2013-12-15 14:40:00,
2013-12-15 09:45:00,34.8,31.6,30.29,WNW,294,0.0,4.0,88,0.00,,,0.02,86,Wunderground v.1.15,2013-12-15 14:45:00,
2013-12-15 09:55:00,35.5,31.4,30.29,West,273,0.0,4.0,85,0.00,,,0.02,93,Wunderground v.1.15,2013-12-15 14:55:00,
2013-12-15 10:05:00,36.1,31.4,30.29,NNW,336,1.0,2.0,83,0.00,,,0.02,135,Wunderground v.1.15,2013-12-15 15:05:00,
2013-12-15 10:10:00,36.4,32.0,30.29,NW,322,0.0,4.0,84,0.00,,,0.02,213,Wunderground v.1.15,2013-12-15 15:10:00,
2013-12-15 10:20:00,37.3,32.3,30.29,NE,46,0.0,4.0,82,0.00,,,0.02,223,Wunderground v.1.15,2013-12-15 15:20:00,
2013-12-15 10:25:00,37.9,32.6,30.30,NNE,12,0.0,4.0,81,0.00,,,0.02,251,Wunderground v.1.15,2013-12-15 15:25:00,
2013-12-15 10:35:00,38.3,32.4,30.30,NW,319,0.0,4.0,79,0.00,,,0.02,306,Wunderground v.1.15,2013-12-15 15:35:00,
2013-12-15 10:45:00,38.1,31.5,30.30,NNE,15,1.0,4.0,77,0.00,,,0.02,355,Wunderground v.1.15,2013-12-15 15:45:00,
2013-12-15 10:55:00,38.8,32.5,30.30,NW,308,1.0,4.0,78,0.00,,,0.02,360,Wunderground v.1.15,2013-12-15 15:55:00,
2013-12-15 11:05:00,39.5,32.2,30.30,West,259,1.0,4.0,75,0.00,,,0.02,156,Wunderground v.1.15,2013-12-15 16:05:00,
2013-12-15 11:15:00,38.9,32.0,30.30,North,360,1.0,4.0,76,0.00,,,0.02,257,Wunderground v.1.15,2013-12-15 16:15:00,
2013-12-15 11:20:00,38.8,31.9,30.30,SE,133,1.0,4.0,76,0.00,,,0.02,403,Wunderground v.1.15,2013-12-15 16:20:00,
2013-12-15 11:30:00,38.9,32.0,30.30,NNW,339,2.0,2.0,76,0.00,,,0.02,216,Wunderground v.1.15,2013-12-15 16:30:00,
2013-12-15 11:35:00,39.1,32.5,30.29,SW,234,1.0,4.0,77,0.00,,,0.02,561,Wunderground v.1.15,2013-12-15 16:35:00,
2013-12-15 11:40:00,39.8,32.8,30.30,West,267,1.0,1.0,76,0.00,,,0.02,149,Wunderground v.1.15,2013-12-15 16:40:00,
2013-12-15 11:50:00,40.0,32.4,30.29,WSW,257,1.0,4.0,74,0.00,,,0.02,643,Wunderground v.1.15,2013-12-15 16:50:00,
2013-12-15 12:00:00,40.2,32.9,30.29,WNW,290,1.0,4.0,75,0.00,,,0.02,195,Wunderground v.1.15,2013-12-15 17:00:00,
2013-12-15 12:10:00,40.2,32.9,30.28,WNW,299,1.0,1.0,75,0.00,,,0.02,246,Wunderground v.1.15,2013-12-15 17:10:00,
2013-12-15 12:20:00,40.8,33.5,30.28,NW,324,1.0,4.0,75,0.00,,,0.02,547,Wunderground v.1.15,2013-12-15 17:20:00,
2013-12-15 12:25:00,40.7,32.7,30.28,NE,54,2.0,4.0,73,0.00,,,0.02,529,Wunderground v.1.15,2013-12-15 17:25:00,
2013-12-15 12:35:00,40.9,33.2,30.28,NNW,344,1.0,3.0,74,0.00,,,0.02,557,Wunderground v.1.15,2013-12-15 17:35:00,
2013-12-15 12:45:00,40.9,32.6,30.28,WSW,245,2.0,4.0,72,0.00,,,0.02,554,Wunderground v.1.15,2013-12-15 17:45:00,
2013-12-15 12:55:00,41.3,33.6,30.27,WNW,302,1.0,3.0,74,0.00,,,0.02,561,Wunderground v.1.15,2013-12-15 17:55:00,
2013-12-15 13:00:00,41.4,33.4,30.27,NW,304,2.0,2.0,73,0.00,,,0.02,554,Wunderground v.1.15,2013-12-15 18:00:00,
2013-12-15 13:10:00,41.9,33.5,30.26,NNW,333,2.0,4.0,72,0.00,,,0.03,522,Wunderground v.1.15,2013-12-15 18:10:00,
2013-12-15 13:20:00,41.5,33.1,30.26,West,277,2.0,2.0,72,0.00,,,0.03,432,Wunderground v.1.15,2013-12-15 18:20:00,
2013-12-15 13:30:00,41.3,33.3,30.26,NNW,343,1.0,4.0,73,0.00,,,0.03,91,Wunderground v.1.15,2013-12-15 18:30:00,
2013-12-15 13:35:00,41.4,33.4,30.26,NNE,19,1.0,4.0,73,0.00,,,0.03,102,Wunderground v.1.15,2013-12-15 18:35:00,
2013-12-15 13:45:00,41.8,33.4,30.25,WNW,288,1.0,4.0,72,0.00,,,0.03,146,Wunderground v.1.15,2013-12-15 18:45:00,
2013-12-15 13:55:00,42.3,33.2,30.25,West,265,1.0,4.0,70,0.00,,,0.03,496,Wunderground v.1.15,2013-12-15 18:55:00,
2013-12-15 14:05:00,42.4,33.3,30.24,NNW,335,2.0,4.0,70,0.00,,,0.03,512,Wunderground v.1.15,2013-12-15 19:05:00,
2013-12-15 14:10:00,42.4,33.3,30.24,West,269,2.0,4.0,70,0.00,,,0.03,385,Wunderground v.1.15,2013-12-15 19:10:00,
2013-12-15 14:15:00,42.2,33.1,30.24,NW,309,2.0,4.0,70,0.00,,,0.03,74,Wunderground v.1.15,2013-12-15 19:15:00,
2013-12-15 14:25:00,42.3,33.9,30.24,NW,315,1.0,4.0,72,0.00,,,0.03,72,Wunderground v.1.15,2013-12-15 19:25:00,
2013-12-15 14:30:00,42.6,33.9,30.24,NW,304,2.0,2.0,71,0.00,,,0.03,72,Wunderground v.1.15,2013-12-15 19:30:00,
2013-12-15 14:35:00,42.6,33.5,30.24,NW,309,2.0,4.0,70,0.00,,,0.03,162,Wunderground v.1.15,2013-12-15 19:35:00,
2013-12-15 14:40:00,42.9,34.1,30.24,North,355,1.0,1.0,71,0.00,,,0.03,111,Wunderground v.1.15,2013-12-15 19:40:00,
2013-12-15 14:50:00,43.7,34.2,30.23,West,265,1.0,1.0,69,0.00,,,0.03,232,Wunderground v.1.15,2013-12-15 19:50:00,
2013-12-15 15:00:00,43.7,33.5,30.23,NW,306,1.0,4.0,67,0.00,,,0.03,116,Wunderground v.1.15,2013-12-15 20:00:00,
2013-12-15 15:10:00,43.8,33.6,30.24,North,11,1.0,4.0,67,0.00,,,0.03,86,Wunderground v.1.15,2013-12-15 20:10:00,
2013-12-15 15:15:00,43.9,34.0,30.24,West,271,1.0,4.0,68,0.00,,,0.03,70,Wunderground v.1.15,2013-12-15 20:15:00,
2013-12-15 15:25:00,44.0,33.7,30.23,West,263,2.0,4.0,67,0.00,,,0.03,53,Wunderground v.1.15,2013-12-15 20:25:00,
2013-12-15 15:35:00,44.1,33.8,30.24,SW,221,1.0,4.0,67,0.00,,,0.03,56,Wunderground v.1.15,2013-12-15 20:35:00,
2013-12-15 15:40:00,44.2,33.9,30.23,WNW,296,1.0,4.0,67,0.00,,,0.03,62,Wunderground v.1.15,2013-12-15 20:40:00,
2013-12-15 15:50:00,44.1,33.5,30.23,WNW,286,1.0,4.0,66,0.00,,,0.03,44,Wunderground v.1.15,2013-12-15 20:50:00,
2013-12-15 16:00:00,44.2,33.6,30.23,North,350,1.0,4.0,66,0.00,,,0.03,42,Wunderground v.1.15,2013-12-15 21:00:00,
2013-12-15 16:05:00,44.2,33.6,30.23,NNW,343,0.0,4.0,66,0.00,,,0.03,42,Wunderground v.1.15,2013-12-15 21:05:00,
2013-12-15 16:10:00,44.3,34.0,30.23,West,273,1.0,1.0,67,0.00,,,0.03,42,Wunderground v.1.15,2013-12-15 21:10:00,
2013-12-15 16:15:00,44.3,34.0,30.23,West,270,0.0,4.0,67,0.00,,,0.03,51,Wunderground v.1.15,2013-12-15 21:15:00,
2013-12-15 16:25:00,44.7,33.6,30.23,WSW,239,1.0,4.0,65,0.00,,,0.03,40,Wunderground v.1.15,2013-12-15 21:25:00,
2013-12-15 16:35:00,44.9,33.8,30.23,WSW,239,0.0,4.0,65,0.00,,,0.03,53,Wunderground v.1.15,2013-12-15 21:35:00,
2013-12-15 16:45:00,45.0,34.7,30.23,SW,229,0.0,4.0,67,0.00,,,0.03,53,Wunderground v.1.15,2013-12-15 21:45:00,
2013-12-15 16:50:00,45.0,35.1,30.23,SW,230,0.0,4.0,68,0.00,,,0.03,30,Wunderground v.1.15,2013-12-15 21:50:00,
2013-12-15 16:55:00,44.9,35.0,30.23,WSW,258,1.0,4.0,68,0.00,,,0.03,30,Wunderground v.1.15,2013-12-15 21:55:00,
2013-12-15 17:05:00,44.7,34.4,30.23,West,276,0.0,4.0,67,0.00,,,0.03,26,Wunderground v.1.15,2013-12-15 22:05:00,
2013-12-15 17:15:00,44.5,34.2,30.23,West,276,0.0,4.0,67,0.00,,,0.03,23,Wunderground v.1.15,2013-12-15 22:15:00,
2013-12-15 17:20:00,44.3,34.0,30.23,West,276,0.0,4.0,67,0.00,,,0.03,21,Wunderground v.1.15,2013-12-15 22:20:00,
2013-12-15 17:25:00,44.2,33.9,30.23,West,276,0.0,4.0,67,0.00,,,0.03,19,Wunderground v.1.15,2013-12-15 22:25:00,
2013-12-15 17:30:00,44.1,34.2,30.23,West,276,0.0,4.0,68,0.00,,,0.03,18,Wunderground v.1.15,2013-12-15 22:30:00,
2013-12-15 17:35:00,44.0,34.5,30.23,West,276,0.0,4.0,69,0.00,,,0.03,14,Wunderground v.1.15,2013-12-15 22:35:00,
2013-12-15 17:45:00,43.6,34.5,30.23,West,276,0.0,4.0,70,0.00,,,0.03,11,Wunderground v.1.15,2013-12-15 22:45:00,
2013-12-15 17:55:00,43.3,34.9,30.23,West,276,0.0,4.0,72,0.00,,,0.03,7,Wunderground v.1.15,2013-12-15 22:55:00,
2013-12-15 18:05:00,42.9,34.8,30.23,West,276,0.0,4.0,73,0.00,,,0.03,0,Wunderground v.1.15,2013-12-15 23:05:00,
2013-12-15 18:15:00,42.3,34.6,30.23,West,276,0.0,4.0,74,0.00,,,0.03,0,Wunderground v.1.15,2013-12-15 23:15:00,
2013-12-15 18:25:00,41.6,34.9,30.24,West,276,0.0,4.0,77,0.00,,,0.03,0,Wunderground v.1.15,2013-12-15 23:25:00,
2013-12-15 18:35:00,40.8,34.8,30.23,West,276,0.0,4.0,79,0.00,,,0.03,0,Wunderground v.1.15,2013-12-15 23:35:00,
2013-12-15 18:45:00,40.2,35.4,30.24,West,276,0.0,4.0,83,0.00,,,0.03,0,Wunderground v.1.15,2013-12-15 23:45:00,
2013-12-15 18:55:00,39.8,35.1,30.23,West,276,0.0,4.0,83,0.00,,,0.03,0,Wunderground v.1.15,2013-12-15 23:55:00,
2013-12-15 19:00:00,39.4,34.7,30.23,West,276,0.0,0.0,83,0.00,,,0.03,0,Wunderground v.1.15,2013-12-16 00:00:00,
2013-12-15 19:10:00,38.7,34.6,30.23,West,276,0.0,0.0,85,0.00,,,0.03,0,Wunderground v.1.15,2013-12-16 00:10:00,
2013-12-15 19:20:00,37.9,34.1,30.23,West,276,0.0,0.0,86,0.00,,,0.03,0,Wunderground v.1.15,2013-12-16 00:20:00,
2013-12-15 19:30:00,37.7,34.2,30.24,West,276,0.0,0.0,87,0.00,,,0.03,0,Wunderground v.1.15,2013-12-16 00:30:00,
2013-12-15 19:35:00,37.7,34.2,30.24,West,276,0.0,0.0,87,0.00,,,0.03,0,Wunderground v.1.15,2013-12-16 00:35:00,
2013-12-15 19:45:00,37.3,33.8,30.24,West,276,0.0,0.0,87,0.00,,,0.03,0,Wunderground v.1.15,2013-12-16 00:45:00,
2013-12-15 19:55:00,37.1,34.2,30.25,West,276,0.0,0.0,89,0.00,,,0.03,0,Wunderground v.1.15,2013-12-16 00:55:00,
2013-12-15 20:00:00,37.0,34.1,30.25,West,276,0.0,0.0,89,0.00,,,0.03,0,Wunderground v.1.15,2013-12-16 01:00:00,
2013-12-15 20:10:00,37.0,34.1,30.25,West,276,0.0,0.0,89,0.00,,,0.03,0,Wunderground v.1.15,2013-12-16 01:10:00,
2013-12-15 20:20:00,36.8,34.1,30.25,West,276,0.0,0.0,90,0.00,,,0.03,0,Wunderground v.1.15,2013-12-16 01:20:00,
2013-12-15 20:30:00,36.8,34.1,30.25,West,276,0.0,0.0,90,0.00,,,0.03,0,Wunderground v.1.15,2013-12-16 01:30:00,
2013-12-15 20:40:00,36.7,33.8,30.25,West,276,0.0,0.0,89,0.00,,,0.03,0,Wunderground v.1.15,2013-12-16 01:40:00,
2013-12-15 20:50:00,36.3,33.6,30.25,West,276,0.0,0.0,90,0.00,,,0.03,0,Wunderground v.1.15,2013-12-16 01:50:00,
2013-12-15 21:00:00,36.1,33.7,30.26,West,276,0.0,0.0,91,0.00,,,0.03,0,Wunderground v.1.15,2013-12-16 02:00:00,
2013-12-15 21:10:00,35.8,33.2,30.25,West,276,0.0,0.0,90,0.00,,,0.03,0,Wunderground v.1.15,2013-12-16 02:10:00,
2013-12-15 21:20:00,35.5,32.9,30.25,West,276,0.0,0.0,90,0.00,,,0.03,0,Wunderground v.1.15,2013-12-16 02:20:00,
2013-12-15 21:30:00,35.0,32.6,30.25,West,276,0.0,0.0,91,0.00,,,0.03,0,Wunderground v.1.15,2013-12-16 02:30:00,
2013-12-15 21:40:00,35.1,33.0,30.25,West,276,0.0,1.0,92,0.00,,,0.03,0,Wunderground v.1.15,2013-12-16 02:40:00,
2013-12-15 21:50:00,34.6,32.8,30.26,West,276,0.0,0.0,93,0.00,,,0.03,0,Wunderground v.1.15,2013-12-16 02:50:00,
2013-12-15 22:00:00,34.6,32.8,30.25,West,276,0.0,0.0,93,0.00,,,0.03,0,Wunderground v.1.15,2013-12-16 03:00:00,
2013-12-15 22:10:00,34.5,32.7,30.25,West,276,0.0,0.0,93,0.00,,,0.03,0,Wunderground v.1.15,2013-12-16 03:10:00,
2013-12-15 22:20:00,34.2,32.4,30.25,West,276,0.0,0.0,93,0.00,,,0.03,0,Wunderground v.1.15,2013-12-16 03:20:00,
2013-12-15 22:30:00,34.5,32.7,30.25,West,276,0.0,0.0,93,0.00,,,0.03,0,Wunderground v.1.15,2013-12-16 03:30:00,
2013-12-15 22:35:00,34.7,32.9,30.25,West,276,0.0,0.0,93,0.00,,,0.03,0,Wunderground v.1.15,2013-12-16 03:35:00,
2013-12-15 22:45:00,34.9,33.1,30.26,West,276,0.0,0.0,93,0.00,,,0.03,0,Wunderground v.1.15,2013-12-16 03:45:00,
2013-12-15 22:55:00,34.7,32.6,30.26,West,276,0.0,0.0,92,0.00,,,0.03,0,Wunderground v.1.15,2013-12-16 03:55:00,
2013-12-15 23:05:00,35.0,32.9,30.26,West,276,0.0,0.0,92,0.00,,,0.03,0,Wunderground v.1.15,2013-12-16 04:05:00,
2013-12-15 23:15:00,34.7,32.3,30.26,West,276,0.0,0.0,91,0.00,,,0.03,0,Wunderground v.1.15,2013-12-16 04:15:00,
2013-12-15 23:25:00,34.4,32.3,30.26,West,276,0.0,0.0,92,0.00,,,0.03,0,Wunderground v.1.15,2013-12-16 04:25:00,
2013-12-15 23:35:00,34.1,32.3,30.26,West,276,0.0,0.0,93,0.00,,,0.03,0,Wunderground v.1.15,2013-12-16 04:35:00,
2013-12-15 23:45:00,34.1,32.3,30.26,West,276,0.0,0.0,93,0.00,,,0.03,0,Wunderground v.1.15,2013-12-16 04:45:00,
2013-12-15 23:55:00,34.5,32.7,30.26,West,276,0.0,0.0,93,0.00,,,0.03,0,Wunderground v.1.15,2013-12-16 04:55:00,